#timestamp,LO_Frequency,Hit,StdDev 
1607904015.6,286046997.0,Y
1607904035.4,286046998.1,P
1607904055.3,286046998.1,P
1607904075.1,286046999.0,P
1607904095.8,286046999.0,N
1607904115.7,286046999.3,N
1607904135.5,286046998.3,Y
1607904155.3,286047001.2,P
1607904175.2,286046999.9,N
1607904195.0,286047000.5,N
1607904195.9,286047000.5,N
1607904215.7,286047000.9,N
1607904235.6,286047000.4,N
1607904255.4,286047000.6,N
1607904275.2,286047001.1,N
1607904295.1,286047001.0,N
1607904296.0,286047001.0,N
1607904315.8,286047000.7,N
1607904335.6,286047001.1,N
1607904355.5,286047000.7,N
1607904375.3,286047001.1,N
1607904395.1,286047001.1,N
1607904415.9,286046998.3,N
1607904435.7,286047001.0,N
1607904455.5,286046998.9,N
1607904475.4,286046998.1,N
1607904495.2,286047000.9,N
1607904515.0,286047000.5,N
1607904515.9,286047000.5,N
1607904535.8,286047001.2,N
1607904555.6,286047000.8,N
1607904575.4,286047001.2,N
1607904595.3,286046998.1,N
1607904615.1,286046999.7,N
1607904635.8,286047000.5,N
1607904655.7,286047000.7,N
1607904675.5,286047002.8,N
1607904695.3,286047000.3,N
1607904715.2,286047000.3,N
1607904735.0,286046999.9,N
1607904735.9,286046999.9,N
1607904755.7,286047000.6,N
1607904775.6,286047000.7,N
1607904795.4,286047000.2,N
1607904815.2,286047001.9,N
1607904835.1,286047002.4,N
1607904836.0,286047002.4,N
1607904855.8,286047002.1,N
1607904875.6,286047002.3,N
1607904895.5,286046999.9,N
1607904915.3,286047002.5,N
1607904935.1,286046999.8,N
1607904955.9,286047002.3,N
1607904975.7,286046999.7,N
1607904995.5,286046999.7,N
1607905015.4,286047002.5,N
1607905035.2,286047001.3,N
1607905055.0,286046999.7,N
1607905055.9,286046999.7,N
1607905075.8,286047002.4,N
1607905095.6,286047002.3,N
1607905115.4,286047002.2,N
1607905135.3,286047001.6,N
1607905155.1,286047001.6,N
1607905175.8,286047001.9,N
1607905195.7,286047002.0,N
1607905215.5,286047001.6,N
1607905235.3,286047001.8,N
1607905255.2,286047001.4,N
1607905275.0,286047001.4,N
1607905275.9,286047001.4,N
1607905295.7,286047001.4,N
1607905315.6,286047001.8,N
1607905335.4,286047001.5,N
1607905355.2,286047001.5,N
1607905375.1,286047001.5,N
1607905376.0,286047001.5,N
1607905395.8,286047001.6,N
1607905415.6,286047003.2,Y
1607905435.5,286047001.4,P
1607905455.3,286047002.3,P
1607905475.1,286046999.8,N
1607905495.9,286047002.3,N
1607905515.7,286047002.0,N
1607905535.5,286047000.1,N
1607905555.4,286046999.9,N
1607905575.2,286047002.7,N
1607905595.0,286047002.3,N
1607905595.9,286047002.3,N
1607905615.8,286047002.6,N
1607905635.6,286047001.2,N
1607905655.4,286047000.9,N
1607905675.3,286046998.7,N
1607905695.1,286047000.5,N
1607905715.8,286047000.3,N
1607905735.7,286047001.0,N
1607905755.5,286047000.7,N
1607905775.3,286047000.5,N
1607905795.2,286046999.7,N
1607905815.0,286047000.6,N
1607905815.9,286047000.6,N
1607905835.7,286047000.4,N
1607905855.6,286047000.0,N
1607905875.4,286046999.3,N
1607905895.2,286047000.8,N
1607905915.1,286047001.2,N
1607905916.0,286047001.2,N
1607905935.8,286047001.2,N
1607905955.6,286047000.7,N
1607905975.5,286047000.7,N
1607905995.3,286046998.6,N
1607906015.2,286046998.3,N
1607906035.9,286047000.8,N
1607906055.7,286046998.1,N
1607906075.5,286047000.4,N
1607906095.4,286047001.0,N
1607906115.2,286047001.1,N
1607906135.0,286046999.3,N
1607906136.0,286046999.3,N
1607906155.8,286046998.8,N
1607906175.6,286046997.0,Y
1607906195.5,286046999.5,P
1607906215.3,286046999.3,N
1607906235.1,286046999.3,N
1607906255.9,286046996.9,Y
1607906275.7,286046998.8,P
1607906295.5,286046999.3,N
1607906315.4,286046999.3,N
1607906335.2,286046996.7,Y
1607906355.0,286046998.5,P
1607906355.9,286046998.5,P
1607906375.8,286046998.8,P
1607906395.6,286046999.0,Y
1607906415.4,286047001.0,P
1607906435.3,286046998.1,N
1607906455.1,286047000.0,N
1607906475.8,286046999.0,N
1607906495.7,286047001.1,N
1607906515.5,286047000.8,N
1607906535.3,286047000.3,N
1607906555.2,286047001.0,N
1607906575.9,286046998.4,N
1607906595.7,286046999.0,N
1607906615.6,286046999.0,N
1607906635.4,286046999.5,N
1607906655.2,286046997.1,N
1607906675.1,286046996.7,N
1607906676.0,286046996.7,N
1607906695.8,286046998.9,N
1607906715.6,286046999.6,N
1607906735.5,286046996.7,N
1607906755.3,286046996.6,N
1607906775.1,286046999.1,N
1607906795.9,286046998.5,N
1607906815.7,286046999.3,N
1607906835.5,286046996.5,N
1607906855.4,286046999.5,N
1607906875.2,286046996.6,N
1607906895.0,286046999.1,N
1607906895.9,286046999.1,N
1607906915.8,286046998.4,N
1607906935.6,286046999.2,N
1607906955.4,286046999.5,N
1607906975.3,286046997.1,N
1607906995.1,286046999.3,N
1607906996.0,286046999.3,N
1607907015.8,286046998.4,N
1607907035.7,286046997.1,N
1607907055.5,286046997.2,N
1607907075.3,286046997.6,N
1607907095.2,286046997.3,N
1607907115.9,286046997.9,N
1607907135.7,286046997.6,N
1607907155.6,286046997.9,N
1607907175.4,286046997.5,N
1607907195.2,286046997.2,N
1607907215.1,286046995.3,Y
1607907216.0,286046995.3,P
1607907235.8,286046999.5,N
1607907255.6,286046999.0,N
1607907275.5,286046998.5,N
1607907295.3,286046998.7,N
1607907315.1,286046996.9,N
1607907335.9,286046996.7,N
1607907355.7,286046999.6,N
1607907375.5,286046999.0,N
1607907395.4,286046999.1,N
1607907415.2,286046999.4,N
1607907435.0,286046999.4,N
1607907435.9,286046999.4,N
1607907455.8,286046998.8,N
1607907475.6,286046997.2,N
1607907495.4,286046997.7,N
1607907515.3,286046997.1,N
1607907535.1,286046997.9,N
1607907555.8,286046996.9,N
1607907575.7,286046999.0,N
1607907595.5,286046997.4,N
